| time (UTC) | temp F | wind direction | speed MPH | gust MPH | rain 1hr in | rain 24hr in | rain mn in | humidity % | barometer mb |
| 20260506232612 | 60 | 152 | 7.0 | 8.0 | 0.00 | 0.00 | 0.00 | 75 | 1012.2 |
| 20260506231552 | 60 | 139 | 7.0 | 8.0 | 0.00 | 0.00 | 0.00 | 74 | 1012.0 |
| 20260506230536 | 60 | 125 | 5.0 | 6.0 | 0.00 | 0.00 | 0.00 | 74 | 1011.9 |
| 20260506225600 | 60 | 125 | 5.0 | 6.0 | 0.00 | 0.00 | 0.00 | 73 | 1012.3 |
| 20260506224540 | 61 | 141 | 5.0 | 6.0 | 0.00 | 0.00 | 0.00 | 73 | 1012.2 |
| 20260506223534 | 61 | 125 | 5.0 | 6.0 | 0.00 | 0.00 | 0.00 | 72 | 1012.2 |
| 20260506222553 | 61 | 154 | 7.0 | 8.0 | 0.00 | 0.00 | 0.00 | 72 | 1012.0 |
| 20260506221513 | 62 | 137 | 7.0 | 8.0 | 0.00 | 0.00 | 0.00 | 71 | 1011.8 |
| 20260506220329 | 62 | 154 | 3.0 | 3.0 | 0.00 | 0.00 | 0.00 | 70 | 1011.9 |
| 20260506215353 | 62 | 141 | 5.0 | 6.0 | 0.00 | 0.00 | 0.00 | 69 | 1011.8 |
| 20260506214313 | 63 | 180 | 3.0 | 3.0 | 0.00 | 0.00 | 0.00 | 69 | 1011.7 |
| 20260506213129 | 63 | 154 | 8.0 | 9.0 | 0.00 | 0.00 | 0.00 | 68 | 1011.6 |
| 20260506212153 | 64 | 126 | 6.0 | 7.0 | 0.00 | 0.00 | 0.00 | 67 | 1011.3 |
| 20260506211113 | 64 | 144 | 19.0 | 21.0 | 0.00 | 0.00 | 0.00 | 66 | 1011.5 |
| 20260506205949 | 64 | 138 | 9.0 | 10.0 | 0.00 | 0.00 | 0.00 | 65 | 1011.6 |
| 20260506204953 | 64 | 166 | 16.0 | 20.0 | 0.00 | 0.00 | 0.00 | 66 | 1011.6 |
| 20260506203913 | 64 | 143 | 10.0 | 11.0 | 0.00 | 0.00 | 0.00 | 65 | 1011.3 |
| 20260506202729 | 65 | 129 | 7.0 | 9.0 | 0.00 | 0.00 | 0.00 | 64 | 1011.4 |
| 20260506201753 | 65 | 168 | 5.0 | 6.0 | 0.00 | 0.00 | 0.00 | 64 | 1011.4 |
| 20260506200733 | 65 | 140 | 9.0 | 10.0 | 0.00 | 0.00 | 0.00 | 63 | 1011.2 |
| 20260506195529 | 65 | 165 | 12.0 | 20.0 | 0.00 | 0.00 | 0.00 | 63 | 1011.0 |
| 20260506194553 | 65 | 137 | 5.0 | 7.0 | 0.00 | 0.00 | 0.00 | 63 | 1011.3 |
| 20260506193513 | 65 | 153 | 4.0 | 6.0 | 0.00 | 0.00 | 0.00 | 63 | 1011.1 |
| 20260506192329 | 65 | 126 | 5.0 | 6.0 | 0.00 | 0.00 | 0.00 | 62 | 1011.2 |
| 20260506191353 | 65 | 101 | 5.0 | 6.0 | 0.00 | 0.00 | 0.00 | 64 | 1011.1 |
| 20260506190313 | 65 | 153 | 4.0 | 6.0 | 0.00 | 0.00 | 0.00 | 62 | 1011.1 |
| 20260506185129 | 66 | 137 | 4.0 | 5.0 | 0.00 | 0.00 | 0.00 | 61 | 1011.0 |
| 20260506184153 | 66 | 188 | 5.0 | 7.0 | 0.00 | 0.00 | 0.00 | 60 | 1010.7 |
| 20260506183113 | 66 | 168 | 4.0 | 7.0 | 0.00 | 0.00 | 0.00 | 60 | 1010.5 |
| 20260506181929 | 67 | 151 | 6.0 | 9.0 | 0.00 | 0.00 | 0.00 | 58 | 1010.5 |
| 20260506180954 | 67 | 132 | 5.0 | 6.0 | 0.00 | 0.00 | 0.00 | 56 | 1010.6 |
| 20260506175913 | 68 | 223 | 8.0 | 11.0 | 0.00 | 0.00 | 0.00 | 55 | 1010.3 |
| 20260506174749 | 69 | 153 | 10.0 | 11.0 | 0.00 | 0.00 | 0.00 | 54 | 1010.6 |
| 20260506173813 | 69 | 157 | 9.0 | 11.0 | 0.00 | 0.00 | 0.00 | 54 | 1010.5 |
| 20260506172713 | 69 | 130 | 11.0 | 14.0 | 0.00 | 0.00 | 0.00 | 55 | 1010.2 |
| 20260506171529 | 70 | 237 | 9.0 | 13.0 | 0.00 | 0.00 | 0.00 | 54 | 1010.1 |
| 20260506170553 | 70 | 148 | 8.0 | 11.0 | 0.00 | 0.00 | 0.00 | 54 | 1010.2 |
| 20260506165633 | 70 | 111 | 6.0 | 7.0 | 0.00 | 0.00 | 0.00 | 54 | 1010.5 |
| 20260506164329 | 70 | 167 | 3.0 | 3.0 | 0.00 | 0.00 | 0.00 | 53 | 1010.5 |
| 20260506163353 | 71 | 183 | 6.0 | 8.0 | 0.00 | 0.00 | 0.00 | 52 | 1010.3 |
| 20260506162313 | 71 | 168 | 4.0 | 5.0 | 0.00 | 0.00 | 0.00 | 52 | 1010.6 |
| 20260506161129 | 71 | 120 | 10.0 | 11.0 | 0.00 | 0.00 | 0.00 | 52 | 1010.7 |
| 20260506160214 | 71 | 144 | 5.0 | 6.0 | 0.00 | 0.00 | 0.00 | 54 | 1010.9 |
| 20260506155113 | 71 | 160 | 8.0 | 11.0 | 0.00 | 0.00 | 0.00 | 53 | 1011.0 |
| 20260506153929 | 72 | 164 | 5.0 | 7.0 | 0.00 | 0.00 | 0.00 | 53 | 1010.9 |
| 20260506152953 | 72 | 157 | 6.0 | 7.0 | 0.00 | 0.00 | 0.00 | 54 | 1010.9 |
| 20260506151914 | 71 | 157 | 4.0 | 5.0 | 0.00 | 0.00 | 0.00 | 54 | 1011.0 |
| 20260506150713 | 72 | 132 | 9.0 | 11.0 | 0.00 | 0.00 | 0.00 | 54 | 1011.1 |
| 20260506145549 | 72 | 130 | 8.0 | 11.0 | 0.00 | 0.00 | 0.00 | 54 | 1011.3 |
| 20260506144613 | 72 | 128 | 10.0 | 11.0 | 0.00 | 0.00 | 0.00 | 55 | 1011.4 |
| 20260506143513 | 71 | 126 | 8.0 | 10.0 | 0.00 | 0.00 | 0.00 | 55 | 1011.7 |
| 20260506142329 | 71 | 123 | 11.0 | 14.0 | 0.00 | 0.00 | 0.00 | 55 | 1011.3 |
| 20260506141353 | 72 | 128 | 9.0 | 11.0 | 0.00 | 0.00 | 0.00 | 54 | 1011.7 |
| 20260506140332 | 71 | 153 | 12.0 | 15.0 | 0.00 | 0.00 | 0.00 | 55 | 1011.8 |
| 20260506135129 | 71 | 131 | 9.0 | 10.0 | 0.00 | 0.00 | 0.00 | 55 | 1011.8 |
| 20260506134153 | 71 | 159 | 11.0 | 11.0 | 0.00 | 0.00 | 0.00 | 55 | 1012.0 |
| 20260506133112 | 72 | 155 | 17.0 | 20.0 | 0.00 | 0.00 | 0.00 | 54 | 1011.9 |
| 20260506131928 | 70 | 142 | 9.0 | 13.0 | 0.00 | 0.00 | 0.00 | 57 | 1012.2 |
| 20260506130953 | 72 | 151 | 9.0 | 10.0 | 0.00 | 0.00 | 0.00 | 55 | 1011.9 |
| 20260506125932 | 72 | 163 | 7.0 | 9.0 | 0.00 | 0.00 | 0.00 | 55 | 1012.2 |
| 20260506124933 | 71 | 131 | 9.0 | 10.0 | 0.00 | 0.00 | 0.00 | 56 | 1012.5 |
| 20260506124000 | 71 | 204 | 6.0 | 8.0 | 0.00 | 0.00 | 0.00 | 55 | 1012.3 |
| 20260506122921 | 70 | 170 | 7.0 | 9.0 | 0.00 | 0.00 | 0.00 | 56 | 1012.6 |
| 20260506121945 | 71 | 168 | 8.0 | 11.0 | 0.00 | 0.00 | 0.00 | 56 | 1012.5 |
| 20260506121009 | 70 | 185 | 4.0 | 5.0 | 0.00 | 0.00 | 0.00 | 58 | 1012.7 |
| 20260506115914 | 70 | 191 | 12.0 | 14.0 | 0.00 | 0.00 | 0.00 | 57 | 1012.7 |
| 20260506114730 | 71 | 169 | 9.0 | 10.0 | 0.00 | 0.00 | 0.00 | 56 | 1012.7 |
| 20260506113754 | 70 | 148 | 9.0 | 11.0 | 0.00 | 0.00 | 0.00 | 56 | 1012.6 |
| 20260506112715 | 69 | 152 | 11.0 | 13.0 | 0.00 | 0.00 | 0.00 | 58 | 1012.7 |
| 20260506111530 | 70 | 147 | 11.0 | 14.0 | 0.00 | 0.00 | 0.00 | 58 | 1012.8 |
| 20260506110554 | 70 | 111 | 12.0 | 15.0 | 0.00 | 0.00 | 0.00 | 59 | 1012.9 |
| 20260506105513 | 70 | 166 | 10.0 | 17.0 | 0.00 | 0.00 | 0.00 | 60 | 1013.0 |
| 20260506104329 | 69 | 142 | 9.0 | 10.0 | 0.00 | 0.00 | 0.00 | 58 | 1013.0 |
| 20260506103354 | 69 | 130 | 12.0 | 14.0 | 0.00 | 0.00 | 0.00 | 60 | 1012.8 |
| 20260506102333 | 69 | 123 | 8.0 | 9.0 | 0.00 | 0.00 | 0.00 | 61 | 1013.0 |
| 20260506101130 | 68 | 187 | 4.0 | 7.0 | 0.00 | 0.00 | 0.00 | 63 | 1012.8 |
| 20260506100214 | 68 | 146 | 7.0 | 8.0 | 0.00 | 0.00 | 0.00 | 62 | 1013.2 |
| 20260506095114 | 68 | 132 | 8.0 | 9.0 | 0.00 | 0.00 | 0.00 | 63 | 1013.1 |
| 20260506093930 | 67 | 76 | 6.0 | 9.0 | 0.00 | 0.00 | 0.00 | 65 | 1013.0 |
| 20260506093014 | 67 | 139 | 7.0 | 8.0 | 0.00 | 0.00 | 0.00 | 63 | 1013.2 |
| 20260506091913 | 66 | 147 | 8.0 | 10.0 | 0.00 | 0.00 | 0.00 | 64 | 1013.0 |
| 20260506090730 | 65 | 148 | 12.0 | 15.0 | 0.00 | 0.00 | 0.00 | 65 | 1013.1 |
| 20260506085814 | 65 | 131 | 4.0 | 5.0 | 0.00 | 0.00 | 0.00 | 67 | 1012.9 |
| 20260506084733 | 65 | 94 | 4.0 | 5.0 | 0.00 | 0.00 | 0.00 | 67 | 1013.2 |
| 20260506083530 | 66 | 113 | 5.0 | 6.0 | 0.00 | 0.00 | 0.00 | 65 | 1013.1 |
| 20260506082553 | 64 | 227 | 3.0 | 5.0 | 0.00 | 0.00 | 0.00 | 67 | 1012.9 |
| 20260506081514 | 64 | 143 | 2.0 | 3.0 | 0.00 | 0.00 | 0.00 | 68 | 1013.4 |
| 20260506080410 | 63 | 114 | 6.0 | 8.0 | 0.00 | 0.00 | 0.00 | 69 | 1013.0 |
| 20260506073339 | 63 | 92 | 5.0 | 7.0 | 0.00 | 0.00 | 0.00 | 70 | 1013.0 |
| 20260506072402 | 62 | 110 | 6.0 | 8.0 | 0.00 | 0.00 | 0.00 | 70 | 1013.1 |
| 20260506071322 | 61 | 118 | 5.0 | 5.0 | 0.00 | 0.00 | 0.00 | 71 | 1013.2 |
| 20260506070346 | 61 | 162 | 4.0 | 5.0 | 0.00 | 0.00 | 0.00 | 71 | 1013.4 |
| 20260506062154 | 59 | 182 | 5.0 | 7.0 | 0.00 | 0.00 | 0.00 | 73 | 1013.2 |
| 20260506061113 | 58 | 114 | 4.0 | 5.0 | 0.00 | 0.00 | 0.00 | 74 | 1013.1 |
| 20260506050933 | 56 | 130 | 3.0 | 3.0 | 0.00 | 0.00 | 0.00 | 77 | 1012.9 |
| 20260506045010 | 54 | 95 | 1.0 | 1.0 | 0.00 | 0.00 | 0.00 | 81 | 1013.0 |
| 20260506043914 | 53 | 75 | 0.0 | 0.0 | 0.00 | 0.00 | 0.00 | 82 | 1012.8 |
| 20260506042750 | 51 | 94 | 0.0 | 0.0 | 0.00 | 0.00 | 0.00 | 84 | 1012.8 |
| 20260506041754 | 52 | 86 | 0.0 | 0.0 | 0.00 | 0.00 | 0.00 | 83 | 1012.8 |
| 20260506040734 | 51 | 75 | 0.0 | 0.0 | 0.00 | 0.00 | 0.00 | 83 | 1012.9 |
| 20260506035530 | 51 | 73 | 3.0 | 3.0 | 0.00 | 0.00 | 0.00 | 84 | 1012.6 |
| 20260506034554 | 51 | 332 | 0.0 | 0.0 | 0.00 | 0.00 | 0.00 | 83 | 1012.7 |
| 20260506033514 | 52 | 82 | 0.0 | 0.0 | 0.00 | 0.00 | 0.00 | 82 | 1012.4 |
| 20260506032329 | 52 | 85 | 2.0 | 2.0 | 0.00 | 0.00 | 0.00 | 81 | 1012.5 |
| 20260506031355 | 53 | 65 | 2.0 | 2.0 | 0.00 | 0.00 | 0.00 | 81 | 1012.3 |
| 20260506030314 | 53 | 96 | 3.0 | 5.0 | 0.00 | 0.00 | 0.00 | 81 | 1012.3 |
| 20260506025129 | 53 | 86 | 2.0 | 2.0 | 0.00 | 0.00 | 0.00 | 80 | 1012.4 |
| 20260506024154 | 53 | 94 | 2.0 | 3.0 | 0.00 | 0.00 | 0.00 | 80 | 1012.5 |
| 20260506023114 | 53 | 54 | 1.0 | 1.0 | 0.00 | 0.00 | 0.00 | 80 | 1012.5 |
| 20260506022159 | 53 | 135 | 4.0 | 5.0 | 0.00 | 0.00 | 0.00 | 79 | 1012.2 |
| 20260506021202 | 53 | 114 | 7.0 | 8.0 | 0.00 | 0.00 | 0.00 | 79 | 1012.2 |
| 20260506020122 | 54 | 61 | 3.0 | 5.0 | 0.00 | 0.00 | 0.00 | 78 | 1012.3 |
| 20260506015146 | 53 | 65 | 3.0 | 3.0 | 0.00 | 0.00 | 0.00 | 79 | 1012.3 |
| 20260506014154 | 54 | 81 | 1.0 | 1.0 | 0.00 | 0.00 | 0.00 | 78 | 1012.3 |
| 20260506013115 | 54 | 129 | 5.0 | 6.0 | 0.00 | 0.00 | 0.00 | 78 | 1011.9 |
| 20260506011930 | 53 | 90 | 3.0 | 3.0 | 0.00 | 0.00 | 0.00 | 79 | 1012.2 |
| 20260506010954 | 54 | 69 | 1.0 | 2.0 | 0.00 | 0.00 | 0.00 | 78 | 1012.1 |
| 20260506005914 | 54 | 68 | 1.0 | 2.0 | 0.00 | 0.00 | 0.00 | 78 | 1012.1 |
| 20260506004729 | 54 | 75 | 3.0 | 5.0 | 0.00 | 0.00 | 0.00 | 78 | 1011.9 |
| 20260506003754 | 53 | 59 | 1.0 | 2.0 | 0.00 | 0.00 | 0.00 | 78 | 1011.9 |
| 20260506002714 | 55 | 75 | 1.0 | 2.0 | 0.00 | 0.00 | 0.00 | 76 | 1011.9 |
| 20260506001630 | 55 | 103 | 3.0 | 3.0 | 0.00 | 0.00 | 0.00 | 75 | 1011.9 |
| 20260506000554 | 56 | 130 | 3.0 | 3.0 | 0.00 | 0.00 | 0.00 | 74 | 1011.9 |
| 20260505235514 | 56 | 120 | 5.0 | 6.0 | 0.00 | 0.00 | 0.00 | 73 | 1012.1 |
| 20260505234330 | 56 | 114 | 2.0 | 2.0 | 0.00 | 0.00 | 0.00 | 72 | 1011.9 |